Home > Weather > Parma > Past weeks

Flag for Italy Past Weather in Parma, Italy — Yesterday and Last 2 Weeks

Now
81 °F

Scattered clouds.


Feels Like: 83 °F
Forecast: 69 / 87 °F
Wind: 2 mph from North

Location: Parma

Current Time: Jul 23, 2016 at 9:22:55 PM

Latest Report: Jul 23, 2016 at 7:50 PM


Visibility: N/A

Pressure: 30.01 "Hg

Humidity: 62%

Dew Point: 66 °F

Location of ParmaLocation

Past Weather in Parma — Graph

°F

Parma Temperature Yesterday

Maximum temperature yesterday: 91 °F (at 3:50 PM)
Minimum temperature yesterday: 72 °F (at 6:00 AM)
Average temperature yesterday: 82 °F

High & Low Weather Summary for the Past Weeks

 TemperatureHumidityPressure
High95 °F (Jul 11, 4:50 PM)83% (Jul 15, 8:50 AM)30.21 "Hg (Jul 15, 8:50 AM)
Low57 °F (Jul 16, 7:00 AM)23% (Jul 14, 4:50 PM)29.65 "Hg (Jul 13, 6:50 PM)
Average81 °F48%29.98 "Hg
* Reported Jul 8 7:50 PM — Jul 23 7:50 PM, Parma, Weather by CustomWeather, © 2016

Note: Actual official high and low records may vary slightly from our data, if they occured in-between our weather recording intervals... More about our weather records

Advertising

Parma Weather History for the Previous 24 Hours

Scroll right to see more
 ConditionsComfort  
Time TempWeatherWind HumidityBarometerVisibility
7:50 PM
Sat, Jul 23
81 °FScattered clouds.2 mph62%30.01 "HgN/A
6:50 PM81 °FPartly sunny.2 mph58%30.01 "HgN/A
5:50 PM82 °FPartly sunny.2 mph55%30.01 "HgN/A
4:50 PM82 °FScattered clouds.3 mph58%30.04 "HgN/A
3:50 PM81 °FScattered clouds.5 mph62%30.04 "Hg4 mi
2:50 PM79 °FPartly sunny.6 mph65%30.07 "Hg4 mi
1:50 PM77 °FFog.2 mph74%30.04 "Hg3 mi
12:50 PM75 °FScattered clouds.2 mph78%30.04 "Hg5 mi
11:50 AM75 °FPartly sunny.2 mph78%30.04 "Hg5 mi
10:50 AM73 °FLight rain. Partly sunny.1 mph83%30.04 "HgN/A
9:50 AM75 °FPartly sunny.7 mph74%30.04 "HgN/A
8:50 AM75 °FPartly sunny.3 mph74%30.01 "HgN/A
7:50 AM73 °FScattered clouds.1 mph69%29.98 "HgN/A
7:00 AM72 °FPassing clouds.6 mph73%29.98 "HgN/A
10:50 PM
Fri, Jul 22
75 °FClear.5 mph74%29.98 "Hg10 mi
9:50 PM79 °FSunny.5 mph65%29.95 "Hg10 mi
Weather by CustomWeather, © 2016

See weather overviewHow to use our weather pages